Regional Weather Roundup
Issued by NWS

Home | Current Version | Previous Version | Text Only | Print | Product List | Glossary On
Versions: 1 2 3 4 5 6 7 8 9 10 11 12 13 14 15 16 17 18 19 20 21 22 23 24 25 26 27 28 29 30 31 32 33 34 35 36 37 38 39 40 41 42 43 44 45 46 47 48 49 50
000
ASCA44 KEWX 261220
RWRMX

LATIN AMERICA AND CARIBBEAN REGIONAL WEATHER ROUNDUP
NATIONAL WEATHER SERVICE AUSTIN/SAN ANTONIO TX
700 AM CDT SUN MAR 26 2017

NOTE: "FAIR" INDICATED FEW OR NO CLOUDS BELOW 12,000 FEET WITH NO
SIGNIFICANT WEATHER AND/OR OBSTRUCTIONS TO VISIBILITY.

BAJA CALIFORNIA

CITY           SKY/WX    TMP DP  RH WIND       PRES   REMARKS
S.J. DEL CABO    N/A    N/A N/A N/A MISG        N/A
TIJUANA        MOCLDY    55  52  88 CALM      30.03F

NORTHWESTERN MEXICO

CITY           SKY/WX    TMP DP  RH WIND       PRES   REMARKS
HERMOSILLO     CLEAR     57  43  58 CALM      29.90
CD. JUAREZ     PTCLDY    61  27  27 N12       29.86

NORTHEASTERN MEXICO

CITY           SKY/WX    TMP DP  RH WIND       PRES   REMARKS
MATAMOROS      PTCLDY    66  64  94 CALM      29.86  FOG
MONCLOVA         N/A    N/A N/A N/A MISG        N/A
MONTERREY      CLEAR     63  55  77 W5        29.80R
REYNOSA        MOCLDY    68  64  88 SE14      29.82
CD. VICTORIA     N/A    N/A N/A N/A MISG        N/A

WESTERN MEXICO

CITY           SKY/WX    TMP DP  RH WIND       PRES   REMARKS
AGUASCALIENTES PTCLDY    54  39  58 S6        30.20
COLIMA           N/A    N/A N/A N/A MISG        N/A
DEL BAJIO      PTCLDY    55  39  54 CALM      30.24
GUADALAJARA    PTCLDY    55  48  76 CALM      30.14
MAZATLAN       CLEAR     57  55  94 NE3       29.96R
P. VALLARTA    PTCLDY    70  70 100 CALM      29.89S
URUAPAN          N/A    N/A N/A N/A MISG        N/A
ZACATECAS      CLEAR     48  32  53 SW7       30.21R WCI  45

CENTRAL MEXICO

CITY           SKY/WX    TMP DP  RH WIND       PRES   REMARKS
CUERNAVACA       N/A    N/A N/A N/A MISG        N/A
MEXICO CITY      N/A    N/A N/A N/A MISG        N/A
MORELIA        CLEAR     48  45  87 CALM      30.19
POZA RICA        N/A    N/A N/A N/A MISG        N/A
QUERETARO        N/A    N/A N/A N/A MISG        N/A
S. LUIS POTOSI PTCLDY    50  36  57 CALM      30.17
TAMPICO        MOCLDY    73  72  94 CALM      29.88S FOG
TOLUCA         PTCLDY    41  39  93 NW3       30.36S

SOUTHERN MEXICO

CITY           SKY/WX    TMP DP  RH WIND       PRES   REMARKS
ACAPULCO       PTCLDY    77  72  83 N2        29.87R
B. DE HUATULCO   N/A    N/A N/A N/A MISG        N/A
OAXACA         CLOUDY    59  48  67 N6        30.19
P. ESCONDIDO   CLEAR     75  70  83 E5        29.96
VERACRUZ       PTCLDY    72  70  94 CALM      29.90

YUCATAN PENINSULA

CITY           SKY/WX    TMP DP  RH WIND       PRES   REMARKS
CAMPECHE       PTCLDY    70  64  83 SE14      29.91
CANCUN         PTCLDY    72  68  88 NE6       29.99R
CHETUMAL       CLEAR     64  63  94 CALM      29.96
CD. DEL CARMEN PTCLDY    75  63  64 SE18      29.91
COZUMEL        PTCLDY    66  64  94 CALM      29.97
MERIDA         CLEAR     70  66  88 E12       29.96R
MINATITLAN       N/A    N/A N/A N/A MISG        N/A
TAPACHULA      PTCLDY    72  70  94 CALM      29.86R
TUX. GUTIERREZ PTCLDY    66  57  72 SW3       29.96R HAZE
VILLAHERMOSA   FOG       66  66 100 CALM      29.93R VSB 1/2

CENTRAL AMERICA

CITY           SKY/WX    TMP DP  RH WIND       PRES   REMARKS
BELIZE CITY    PTCLDY    66  66 100 CALM      29.95R
MANAGUA        MOSUNNY   73  66  78 SE5       29.89R

CARIBBEAN

CITY           SKY/WX    TMP DP  RH WIND       PRES   REMARKS
ARUBA          MOSUNNY   82  73  74 E9        29.89R
KINGSTON       MOSUNNY   77  68  73 N8        29.89S
NASSAU         MOSUNNY   75  66  73 NE9       30.08R
SAN JUAN       MOSUNNY   77  73  88 S5        29.93R
SANTO DOMINGO  MOSUNNY   72  68  88 NE5       29.89S
ST. CROIX      SUNNY     81  72  74 SE9       29.96
ST. KITTS      MOSUNNY   81  72  74 SE10      29.97R
ST. MAARTEN    PTSUNNY   79  75  89 SE10      29.97R
ST. THOMAS     LGT RAIN  77  75  94 S9        29.95

$$





USA.gov is the U.S. government's official web portal to all federal, state and local government web resources and services.